User: anonymous   Login
Location: Clatteringshaws Loch
(55.0508°N, 4.2860°W)
Time: 22:39:10
(UTC+01:00)
Language:

Cosmos 2221 Rocket - Orbit

View from above orbital plane
View from above orbital plane
View from above satellite
View from above satellite

Ground track
Ground track

The orbit data is extracted from the following two-line orbital elements,

1 22237U 92080B   17234.95715128 +.00000045 +00000-0 +30736-5 0  9993
2 22237 082.5099 055.6107 0019454 351.7724 119.3078 14.78323506333217
Epoch (UTC): 22 August 2017 22:58:17
Eccentricity: 0.0019454
inclination: 82.5099°
perigee height: 621 km
apogee height: 648 km
right ascension of ascending node: 55.6107°
argument of perigee: 351.7724°
revolutions per day: 14.78323506
mean anomaly at epoch: 119.3078°
orbit number at epoch: 33321

The dashed part of the orbit path shows where the satellite is in the earth's shadow,  

DLR